Estherville, IA

12:41 AM CDT on May 23, 2017 (GMT -0500)
Estherville Municipal

Weather History for KEST - March, 2013

Change the Weather History Date:

Thursday, March 21, 2013

  Actual Average Record
Temperature  
Mean Temperature 17 °F 35 °F  
Max Temperature 27 °F 44 °F 67 °F (1953)
Min Temperature 6 °F 26 °F -6 °F (1951)
Degree Days  
Heating Degree Days 48 30  
Month to date heating degree days 870 727  
Since 1 July heating degree days 6509 6642  
Cooling Degree Days 0 0  
Month to date cooling degree days 0 0  
Year to date cooling degree days 0 0  
Moisture  
Dew Point 8 °F    
Average Humidity 67    
Maximum Humidity 80    
Minimum Humidity 54    
Precipitation  
Precipitation 0.00 in 0.05 in 0.29 in (1991)
Month to date precipitation 1.05 0.87  
Sea Level Pressure  
Sea Level Pressure 30.11 in    
Wind  
Wind Speed 5 mph (NE)    
Max Wind Speed 14 mph    
Max Gust Speed 17 mph    
Visibility 10 miles    
Events      
T = Trace of Precipitation, MM = Missing Value Source: NWS Daily Summary

Daily Weather History Graph

Daily Weather History Graph

Search for Another Location

Airport or City:

Trip Planner

Search our weather history database for the weather conditions in past years. The results will help you decide how hot, cold, wet, or windy it might be!

Date:

Astronomy

Mar. 21, 2013 Rise Set
Actual Time 7:19 AM CDT 7:32 PM CDT
Civil Twilight 6:51 AM CDT 8:01 PM CDT
Nautical Twilight 6:18 AM CDT 8:34 PM CDT
Astronomical Twilight 5:43 AM CDT 9:09 PM CDT
Moon 1:55 PM CDT (3/21) 3:50 AM CDT (3/21)
Length of Visible Light 13h 09m
Length of Day
12h 12m
Waxing Gibbous, 69% of the Moon is Illuminated
Mar 21
Waxing Gibbous
Mar 27
Full
Apr 2
Last Quarter
Apr 10
New
Apr 18
First Quarter

Hourly Weather History & Observations

Time (CDT) Temp. Windchill Dew Point Humidity Pressure Visibility Wind Dir Wind Speed Gust Speed Precip Events Conditions
12:52 AM 12.0 °F -1.3 °F 3.9 °F 70% 30.18 in 10.0 mi North 10.4 mph - N/A   Clear
1:52 AM 10.9 °F -0.8 °F 3.0 °F 70% 30.17 in 10.0 mi North 8.1 mph - N/A   Clear
2:52 AM 9.0 °F -2.2 °F 3.0 °F 77% 30.16 in 10.0 mi North 6.9 mph - N/A   Clear
3:52 AM 8.1 °F -0.5 °F 3.0 °F 80% 30.15 in 10.0 mi North 4.6 mph - N/A   Clear
4:52 AM 8.1 °F -0.5 °F 1.9 °F 76% 30.13 in 10.0 mi North 4.6 mph - N/A   Clear
5:52 AM 8.1 °F 1.4 °F 3.0 °F 80% 30.13 in 10.0 mi NW 3.5 mph - N/A   Clear
6:52 AM 7.0 °F 0.1 °F 1.9 °F 80% 30.14 in 10.0 mi NNW 3.5 mph - N/A   Clear
7:52 AM 8.1 °F 1.4 °F 1.9 °F 76% 30.14 in 10.0 mi North 3.5 mph - N/A   Clear
8:52 AM 10.9 °F 4.7 °F 3.0 °F 70% 30.14 in 10.0 mi North 3.5 mph - N/A   Clear
9:52 AM 14.0 °F - 3.9 °F 64% 30.13 in 10.0 mi Calm Calm - N/A   Clear
10:52 AM 16.0 °F 10.4 °F 5.0 °F 62% 30.13 in 10.0 mi Variable 3.5 mph - N/A   Clear
12:52 PM 19.9 °F 14.9 °F 7.0 °F 57% 30.11 in 10.0 mi SSE 3.5 mph - N/A   Clear
1:52 PM 21.9 °F 12.5 °F 9.0 °F 58% 30.09 in 10.0 mi ESE 8.1 mph - N/A   Clear
2:52 PM 23.0 °F 18.4 °F 9.0 °F 55% 30.07 in 10.0 mi Variable 3.5 mph - N/A   Clear
3:52 PM 25.0 °F 19.3 °F 10.9 °F 55% 30.06 in 10.0 mi ESE 4.6 mph - N/A   Clear
4:52 PM 26.1 °F 18.4 °F 12.0 °F 55% 30.05 in 10.0 mi East 6.9 mph - N/A   Clear
5:52 PM 26.1 °F 20.5 °F 12.9 °F 58% 30.06 in 10.0 mi East 4.6 mph - N/A   Clear
6:52 PM 25.0 °F 16.3 °F 14.0 °F 63% 30.06 in 10.0 mi ENE 8.1 mph - N/A   Clear
7:52 PM 23.0 °F 13.1 °F 12.9 °F 65% 30.07 in 10.0 mi East 9.2 mph - N/A   Clear
8:52 PM 21.9 °F 11.7 °F 12.9 °F 68% 30.08 in 10.0 mi ESE 9.2 mph - N/A   Clear
9:52 PM 21.0 °F 12.4 °F 14.0 °F 74% 30.09 in 10.0 mi East 6.9 mph - N/A   Clear
10:52 PM 19.9 °F 14.9 °F 14.0 °F 78% 30.11 in 10.0 mi East 3.5 mph - N/A   Clear
11:52 PM 19.9 °F 13.4 °F 12.9 °F 74% 30.11 in 10.0 mi East 4.6 mph - N/A   Clear